Weather History for State College, PA

Change the Weather History Date:

Tuesday, February 18, 2014

  Actual Average Record
Temperature  
Mean Temperature 28 °F -  
Max Temperature 35 °F 34 °F 65 °F (2011)
Min Temperature 22 °F 19 °F -10 °F (1979)
Degree Days  
Heating Degree Days 36    
Moisture  
Dew Point 21 °F    
Average Humidity 76    
Maximum Humidity 88    
Minimum Humidity 40    
Precipitation  
Precipitation 0.00 in - - ()
Sea Level Pressure  
Sea Level Pressure 29.95 in    
Wind  
Wind Speed 9 mph (SW)    
Max Wind Speed 20 mph    
Max Gust Speed 31 mph    
Visibility 5 miles    
Events Fog , Snow    
Averages and records for this station are not official NWS values.
T = Trace of Precipitation, MM = Missing Value Source: NWS Daily Summary

Daily Weather History Graph

Daily Weather History Graph

Search for Another Location

Airport:

Trip Planner

Search our weather history database for the weather conditions in past years. The results will help you decide how hot, cold, wet, or windy it might be!

Date:

Astronomy

Feb. 18, 2014 Rise Set
Actual Time 7:01 AM EST 5:49 PM EST
Civil Twilight 6:33 AM EST 6:17 PM EST
Nautical Twilight 6:01 AM EST 6:49 PM EST
Astronomical Twilight 5:29 AM EST 7:21 PM EST
Moon 9:43 PM EST (2/18) 8:31 AM EST (2/18)
Length of Visible Light 11h 44m
Length of Day
10h 48m
Waning Gibbous, 87% of the Moon is Illuminated
Feb 18
Waning Gibbous
Feb 22
Last Quarter
Mar 1
New
Mar 8
First Quarter
Mar 16
Full

Hourly Weather History & Observations

Time (EST) Temp. Windchill Dew Point Humidity Pressure Visibility Wind Dir Wind Speed Gust Speed Precip Events Conditions
12:15 AM 26.4 °F 16.0 °F 5.2 °F 40% 30.04 in 5.0 mi South 11.5 mph 17.3 mph N/A Snow Light Snow
12:35 AM 23.0 °F 10.1 °F 16.9 °F 77% 30.04 in 0.8 mi South 15.0 mph - N/A Snow Snow
12:55 AM 22.8 °F 12.2 °F 18.1 °F 82% 30.01 in 1.8 mi South 10.4 mph - N/A Snow Light Snow
1:35 AM 24.6 °F 14.4 °F 16.2 °F 70% 30.00 in 10.0 mi South 10.4 mph - N/A Snow Light Snow
1:55 AM 24.8 °F 15.3 °F 16.7 °F 71% 30.00 in 3.0 mi South 9.2 mph - N/A Snow Light Snow
2:15 AM 24.4 °F 12.4 °F 17.6 °F 75% 29.99 in 4.0 mi SSE 13.8 mph 18.4 mph N/A Snow Light Snow
2:35 AM 24.8 °F 16.9 °F 17.2 °F 73% 29.99 in 4.0 mi South 6.9 mph - N/A Snow Light Snow
2:55 AM 25.0 °F 14.8 °F 17.4 °F 73% 29.98 in 7.0 mi South 10.4 mph 17.3 mph N/A Snow Light Snow
3:15 AM 25.3 °F 16.0 °F 17.6 °F 72% 29.97 in 5.0 mi South 9.2 mph - N/A Snow Light Snow
3:35 AM 25.3 °F 16.7 °F 18.3 °F 75% 29.96 in 5.0 mi South 8.1 mph 17.3 mph N/A Snow Light Snow
3:55 AM 25.7 °F 17.1 °F 18.3 °F 74% 29.95 in 10.0 mi South 8.1 mph - N/A Snow Light Snow
4:15 AM 26.1 °F 16.2 °F 18.7 °F 74% 29.93 in 7.0 mi South 10.4 mph 18.4 mph N/A Snow Light Snow
4:35 AM 26.2 °F 17.1 °F 19.2 °F 75% 29.92 in 5.0 mi SSW 9.2 mph - N/A Snow Light Snow
4:55 AM 26.4 °F 19.8 °F 19.4 °F 75% 29.92 in 5.0 mi South 5.8 mph - N/A Snow Light Snow
5:15 AM 26.4 °F 19.8 °F 19.4 °F 75% 29.91 in 7.0 mi South 5.8 mph - N/A Snow Light Snow
5:35 AM 26.6 °F 17.5 °F 19.6 °F 75% 29.91 in 10.0 mi SSE 9.2 mph - N/A Snow Light Snow
5:53 AM 26.6 °F 20.0 °F 19.4 °F 74% 29.91 in 4.0 mi SSW 5.8 mph - N/A Snow Light Snow
5:55 AM 26.6 °F 22.6 °F 19.4 °F 74% 29.91 in 3.0 mi SSW 3.5 mph - N/A Snow Light Snow
6:12 AM 26.6 °F 19.1 °F 21.2 °F 80% 29.90 in 2.0 mi SSW 6.9 mph - N/A Snow Light Snow
6:24 AM 26.6 °F 19.1 °F 21.2 °F 80% 29.89 in 0.8 mi SSW 6.9 mph - N/A Snow Light Snow
6:35 AM 26.6 °F 20.0 °F 21.2 °F 80% 29.89 in 1.2 mi SW 5.8 mph - N/A Snow Light Snow
6:53 AM 26.6 °F 21.2 °F 23.0 °F 86% 29.89 in 1.0 mi SSW 4.6 mph - N/A Snow Light Snow
7:09 AM 26.6 °F 21.2 °F 23.0 °F 86% 29.89 in 0.4 mi SSW 4.6 mph - N/A Fog , Snow Snow
7:29 AM 26.6 °F 21.2 °F 23.0 °F 86% 29.89 in 0.8 mi SSW 4.6 mph - N/A Snow Light Snow
7:43 AM 26.6 °F 20.0 °F 23.0 °F 86% 29.89 in 1.8 mi SW 5.8 mph - N/A Snow Light Snow
7:53 AM 26.6 °F 20.0 °F 23.0 °F 86% 29.89 in 2.8 mi SSW 5.8 mph - N/A Snow Light Snow
8:03 AM 26.6 °F 21.2 °F 23.0 °F 86% 29.88 in 4.0 mi SSW 4.6 mph - N/A Snow Light Snow
8:13 AM 26.6 °F 22.6 °F 23.0 °F 86% 29.88 in 1.2 mi SSW 3.5 mph - N/A Snow Light Snow
8:53 AM 28.4 °F 24.6 °F 24.8 °F 86% 29.87 in 1.2 mi WSW 3.5 mph - N/A Snow Light Snow
9:19 AM 28.4 °F 20.4 °F 24.8 °F 86% 29.90 in 0.1 mi West 8.1 mph - N/A Fog , Snow Heavy Snow
9:40 AM 30.2 °F 23.4 °F 24.8 °F 80% 29.90 in 0.8 mi SW 6.9 mph - N/A Snow Light Snow
9:53 AM 30.2 °F 23.4 °F 26.6 °F 86% 29.90 in 0.8 mi SW 6.9 mph - N/A Snow Light Snow
10:31 AM 30.2 °F 25.4 °F 26.6 °F 86% 29.92 in 1.0 mi West 4.6 mph - N/A Snow Light Snow
10:53 AM 32.0 °F 22.1 °F 26.6 °F 80% 29.92 in 2.0 mi West 13.8 mph 17.3 mph N/A Snow Light Snow
11:22 AM 32.0 °F 22.1 °F 24.8 °F 75% 29.94 in 4.0 mi West 13.8 mph 23.0 mph N/A Snow Light Snow
11:53 AM 32.0 °F 24.8 °F 23.0 °F 69% 29.95 in 7.0 mi West 8.1 mph 17.3 mph N/A   Overcast
12:53 PM 33.8 °F 23.2 °F 21.2 °F 60% 29.95 in 7.0 mi West 17.3 mph 29.9 mph N/A   Overcast
1:53 PM 33.8 °F 22.5 °F 19.4 °F 56% 29.98 in 7.0 mi West 19.6 mph 31.1 mph N/A   Overcast
2:53 PM 35.6 °F 26.2 °F 21.2 °F 56% 30.00 in 7.0 mi West 15.0 mph 27.6 mph N/A   Overcast
3:53 PM 35.6 °F 25.9 °F 21.2 °F 56% 30.00 in 7.0 mi WNW 16.1 mph 24.2 mph N/A   Mostly Cloudy
4:20 PM 35.6 °F 27.5 °F 21.2 °F 56% 30.01 in 10.0 mi West 11.5 mph - N/A   Scattered Clouds
4:53 PM 35.6 °F 29.2 °F 23.0 °F 60% 30.02 in 10.0 mi WNW 8.1 mph - N/A   Scattered Clouds
6:53 PM 32.0 °F - 23.0 °F 69% 30.04 in 10.0 mi Calm Calm - N/A   Clear
8:53 PM 30.2 °F - 23.0 °F 75% 30.02 in 10.0 mi Calm Calm - N/A   Clear
9:55 PM 28.6 °F - 22.5 °F 78% 30.00 in 7.0 mi Calm Calm - N/A   Clear
10:15 PM 28.0 °F - 23.5 °F 83% 30.00 in 7.0 mi Calm Calm - N/A   Clear
10:35 PM 25.7 °F - 21.7 °F 85% 29.98 in 5.0 mi Calm Calm - N/A   Clear
10:55 PM 27.3 °F - 23.7 °F 86% 29.98 in 5.0 mi Calm Calm - N/A   Clear
11:15 PM 26.1 °F - 22.8 °F 88% 29.97 in 4.0 mi Calm Calm - N/A   Clear
11:35 PM 26.2 °F - 23.2 °F 88% 29.97 in 4.0 mi Calm Calm - N/A   Scattered Clouds
11:55 PM 25.9 °F 20.3 °F 22.8 °F 88% 29.98 in 4.0 mi WNW 4.6 mph - N/A   Clear